Change the Weather History Date:

Monday, March 25, 2013

  Actual Average Record
Temperature  
Mean Temperature 22 °F -  
Max Temperature 33 °F 53 °F 81 °F (1967)
Min Temperature 11 °F 26 °F -6 °F (1965)
Degree Days  
Heating Degree Days 43    
Moisture  
Dew Point 11 °F    
Average Humidity 66    
Maximum Humidity 85    
Minimum Humidity 40    
Precipitation  
Precipitation 0.00 in - - ()
Sea Level Pressure  
Sea Level Pressure 30.27 in    
Wind  
Wind Speed 10 mph (NW)    
Max Wind Speed 16 mph    
Max Gust Speed 21 mph    
Visibility 10 miles    
Events      
Averages and records for this station are not official NWS values.
T = Trace of Precipitation, MM = Missing Value Source: NWS Daily Summary

Daily Weather History Graph

Daily Weather History Graph

Search for Another Location

Airport or City:

Trip Planner

Search our weather history database for the weather conditions in past years. The results will help you decide how hot, cold, wet, or windy it might be!

Date:

Astronomy

Mar. 25, 2013 Rise Set
Actual Time 6:41 AM MDT 7:04 PM MDT
Civil Twilight 6:14 AM MDT 7:32 PM MDT
Nautical Twilight 5:41 AM MDT 8:05 PM MDT
Astronomical Twilight 5:08 AM MDT 8:38 PM MDT
Moon 5:38 PM MDT (3/25) 5:26 AM MDT (3/25)
Length of Visible Light 13h 18m
Length of Day
12h 23m
Waxing Gibbous, 97% of the Moon is Illuminated
Mar 25
Waxing Gibbous
Mar 27
Full
Apr 2
Last Quarter
Apr 10
New
Apr 18
First Quarter

Hourly Weather History & Observations

Time (MDT) Temp. Windchill Dew Point Humidity Pressure Visibility Wind Dir Wind Speed Gust Speed Precip Events Conditions
12:15 AM 17.8 °F 3.4 °F 11.1 °F 75% 30.24 in 10.0 mi NNW 15.0 mph - N/A   Clear
12:35 AM 17.8 °F 5.9 °F 11.3 °F 76% 30.25 in 10.0 mi NW 10.4 mph - N/A   Clear
12:55 AM 17.4 °F 4.7 °F 11.3 °F 77% 30.24 in 10.0 mi NNW 11.5 mph - N/A   Clear
1:15 AM 18.3 °F 3.6 °F 11.3 °F 74% 30.24 in 10.0 mi NNW 16.1 mph - N/A   Clear
1:35 AM 17.2 °F 5.2 °F 10.9 °F 76% 30.25 in 10.0 mi NNW 10.4 mph - N/A   Clear
1:55 AM 16.5 °F 5.1 °F 10.9 °F 79% 30.25 in 10.0 mi NNW 9.2 mph - N/A   Clear
2:15 AM 15.3 °F 4.4 °F 10.4 °F 81% 30.26 in 10.0 mi NW 8.1 mph - N/A   Clear
2:35 AM 16.3 °F 4.9 °F 10.6 °F 78% 30.26 in 10.0 mi NNW 9.2 mph - N/A   Clear
2:55 AM 16.7 °F 3.8 °F 10.4 °F 76% 30.25 in 10.0 mi NNW 11.5 mph - N/A   Clear
3:15 AM 14.9 °F 3.1 °F 9.5 °F 79% 30.26 in 10.0 mi WNW 9.2 mph - N/A   Clear
3:35 AM 12.6 °F 1.1 °F 7.7 °F 81% 30.26 in 10.0 mi WNW 8.1 mph - N/A   Clear
3:55 AM 12.7 °F -0.4 °F 8.1 °F 82% 30.25 in 10.0 mi WNW 10.4 mph - N/A   Clear
4:15 AM 12.9 °F -0.2 °F 8.1 °F 81% 30.25 in 10.0 mi NW 10.4 mph - N/A   Clear
4:35 AM 13.1 °F 0.1 °F 8.4 °F 82% 30.26 in 10.0 mi NW 10.4 mph - N/A   Clear
4:55 AM 13.1 °F 0.1 °F 8.2 °F 81% 30.26 in 10.0 mi NW 10.4 mph - N/A   Clear
5:15 AM 12.9 °F 2.6 °F 7.9 °F 80% 30.26 in 10.0 mi NW 6.9 mph - N/A   Clear
5:35 AM 12.2 °F 4.3 °F 7.7 °F 82% 30.27 in 10.0 mi NW 4.6 mph - N/A   Clear
5:55 AM 12.6 °F 1.1 °F 7.7 °F 81% 30.27 in 10.0 mi NW 8.1 mph - N/A   Clear
6:15 AM 12.0 °F 1.5 °F 7.3 °F 81% 30.27 in 10.0 mi WNW 6.9 mph - N/A   Clear
6:35 AM 11.3 °F -0.4 °F 6.8 °F 82% 30.28 in 10.0 mi WNW 8.1 mph - N/A   Clear
6:55 AM 11.3 °F 0.7 °F 6.8 °F 82% 30.29 in 10.0 mi WNW 6.9 mph - N/A   Clear
7:15 AM 12.0 °F 1.5 °F 7.3 °F 81% 30.29 in 10.0 mi WNW 6.9 mph - N/A   Clear
7:35 AM 13.1 °F 2.8 °F 8.2 °F 81% 30.29 in 10.0 mi WNW 6.9 mph - N/A   Clear
7:55 AM 15.1 °F 3.3 °F 9.7 °F 79% 30.29 in 10.0 mi NW 9.2 mph - N/A   Clear
8:15 AM 16.7 °F 3.8 °F 10.4 °F 76% 30.30 in 10.0 mi NW 11.5 mph - N/A   Clear
8:35 AM 17.6 °F 5.7 °F 10.8 °F 75% 30.30 in 10.0 mi NW 10.4 mph - N/A   Clear
8:55 AM 18.9 °F 5.9 °F 11.1 °F 72% 30.30 in 10.0 mi NNW 12.7 mph - N/A   Clear
9:15 AM 19.8 °F 5.9 °F 11.1 °F 69% 30.30 in 10.0 mi NNW 15.0 mph 19.6 mph N/A   Clear
9:35 AM 21.0 °F 8.6 °F 11.5 °F 67% 30.30 in 10.0 mi NNW 12.7 mph - N/A   Clear
9:55 AM 21.7 °F 9.6 °F 11.5 °F 65% 30.30 in 10.0 mi NW 12.7 mph 16.1 mph N/A   Scattered Clouds
10:15 AM 22.5 °F 10.5 °F 11.1 °F 62% 30.30 in 10.0 mi NNW 12.7 mph 19.6 mph N/A   Scattered Clouds
10:35 AM 22.8 °F 11.5 °F 12.0 °F 63% 30.31 in 10.0 mi NNW 11.5 mph 19.6 mph N/A   Scattered Clouds
10:55 AM 23.5 °F 11.8 °F 12.2 °F 62% 30.31 in 10.0 mi NNW 12.7 mph - N/A   Mostly Cloudy
11:15 AM 24.1 °F 13.7 °F 12.2 °F 61% 30.30 in 10.0 mi WNW 10.4 mph 17.3 mph N/A   Mostly Cloudy
11:35 AM 25.5 °F 15.5 °F 12.6 °F 58% 30.30 in 10.0 mi NW 10.4 mph 17.3 mph N/A   Scattered Clouds
11:55 AM 26.6 °F 14.7 °F 12.2 °F 55% 30.29 in 10.0 mi NW 15.0 mph - N/A   Scattered Clouds
12:15 PM 27.5 °F 18.0 °F 12.7 °F 54% 30.29 in 10.0 mi NW 10.4 mph 18.4 mph N/A   Scattered Clouds
12:35 PM 28.2 °F 17.7 °F 13.1 °F 53% 30.28 in 10.0 mi NNW 12.7 mph 17.3 mph N/A   Scattered Clouds
12:55 PM 28.9 °F 18.2 °F 12.2 °F 50% 30.28 in 10.0 mi NNW 13.8 mph 18.4 mph N/A   Scattered Clouds
1:15 PM 29.3 °F 19.6 °F 13.1 °F 51% 30.27 in 10.0 mi NNW 11.5 mph 17.3 mph N/A   Scattered Clouds
1:35 PM 30.6 °F 20.2 °F 13.6 °F 50% 30.27 in 10.0 mi NNW 13.8 mph 20.7 mph N/A   Scattered Clouds
1:55 PM 31.1 °F 23.7 °F 13.1 °F 47% 30.27 in 10.0 mi NW 8.1 mph 18.4 mph N/A   Clear
2:15 PM 31.8 °F 24.6 °F 13.1 °F 46% 30.25 in 10.0 mi NNW 8.1 mph - N/A   Clear
2:35 PM 32.0 °F 24.2 °F 12.9 °F 45% 30.25 in 10.0 mi North 9.2 mph - N/A   Clear
2:55 PM 32.4 °F 23.5 °F 12.7 °F 44% 30.25 in 10.0 mi North 11.5 mph 17.3 mph N/A   Clear
3:15 PM 32.4 °F 22.5 °F 12.7 °F 44% 30.24 in 10.0 mi North 13.8 mph - N/A   Clear
3:35 PM 32.7 °F 24.5 °F 11.8 °F 42% 30.24 in 10.0 mi North 10.4 mph - N/A   Clear
3:55 PM 32.7 °F 23.4 °F 12.0 °F 42% 30.24 in 10.0 mi North 12.7 mph 16.1 mph N/A   Clear
4:15 PM 32.9 °F 28.5 °F 11.3 °F 41% 30.24 in 10.0 mi North 4.6 mph - N/A   Clear
4:35 PM 33.3 °F 27.1 °F 11.3 °F 40% 30.24 in 10.0 mi North 6.9 mph - N/A   Clear
4:55 PM 33.1 °F 26.9 °F 11.8 °F 41% 30.24 in 10.0 mi North 6.9 mph - N/A   Clear
5:15 PM 33.4 °F 26.6 °F 11.5 °F 40% 30.23 in 10.0 mi North 8.1 mph - N/A   Clear
5:35 PM 33.3 °F 30.2 °F 11.1 °F 40% 30.23 in 10.0 mi NNE 3.5 mph - N/A   Clear
5:55 PM 32.4 °F 29.1 °F 11.8 °F 43% 30.24 in 10.0 mi ENE 3.5 mph - N/A   Clear
6:15 PM 32.4 °F - 11.5 °F 42% 30.24 in 10.0 mi Calm Calm - N/A   Clear
6:35 PM 32.2 °F - 13.5 °F 46% 30.24 in 10.0 mi Calm Calm - N/A   Clear
6:55 PM 32.0 °F - 10.4 °F 41% 30.24 in 10.0 mi Calm Calm - N/A   Clear
7:15 PM 31.6 °F - 11.3 °F 43% 30.24 in 10.0 mi Calm Calm - N/A   Clear
7:35 PM 26.4 °F - 14.7 °F 61% 30.24 in 10.0 mi Calm Calm - N/A   Clear
7:55 PM 25.2 °F - 14.2 °F 63% 30.25 in 10.0 mi Calm Calm - N/A   Clear
8:15 PM 22.6 °F - 14.7 °F 72% 30.25 in 10.0 mi Calm Calm - N/A   Clear
8:35 PM 21.0 °F 16.2 °F 14.9 °F 77% 30.26 in 10.0 mi West 3.5 mph - N/A   Clear
8:55 PM 21.6 °F 15.3 °F 14.9 °F 76% 30.27 in 10.0 mi West 4.6 mph - N/A   Clear
9:15 PM 22.1 °F 14.7 °F 14.2 °F 72% 30.27 in 10.0 mi West 5.8 mph - N/A   Clear
9:35 PM 21.2 °F 13.6 °F 15.4 °F 78% 30.27 in 10.0 mi WSW 5.8 mph - N/A   Clear
9:55 PM 20.1 °F 13.6 °F 14.7 °F 80% 30.27 in 10.0 mi West 4.6 mph - N/A   Clear
10:15 PM 20.1 °F 13.6 °F 15.1 °F 81% 30.27 in 10.0 mi West 4.6 mph - N/A   Clear
10:35 PM 18.3 °F 13.1 °F 13.6 °F 82% 30.27 in 10.0 mi West 3.5 mph - N/A   Clear
10:55 PM 18.7 °F 13.5 °F 14.0 °F 82% 30.27 in 10.0 mi West 3.5 mph - N/A   Clear
11:15 PM 17.8 °F 12.5 °F 13.8 °F 84% 30.27 in 10.0 mi WSW 3.5 mph - N/A   Clear
11:35 PM 17.6 °F 10.7 °F 13.8 °F 85% 30.27 in 10.0 mi WSW 4.6 mph - N/A   Clear
11:55 PM 17.6 °F 12.3 °F 13.5 °F 84% 30.26 in 10.0 mi WSW 3.5 mph - N/A   Clear